FW9555 Weather Reports


time (UTC)temp
C
wind
direction
speed
KPH
gust
KPH
rain 1hr
cm
rain 24hr
cm
rain mn
cm
humidity
%
barometer
mb
20260906072616 21 81 0.0 0.0 0.00 0.00 0.00 99 1014.1
20260906072112 21 73 0.0 3.2 0.00 0.00 0.00 99 1014.3
20260906071608 21 74 0.0 0.0 0.00 0.00 0.00 99 1014.1
20260906071103 21 74 0.0 0.0 0.00 0.00 0.00 99 1014.2
20260906070600 21 74 0.0 0.0 0.00 0.00 0.00 99 1014.2
20260906070055 21 74 0.0 0.0 0.00 0.00 0.00 99 1014.4
20260906065554 21 0 0.0 1.6 0.00 0.00 0.00 99 1014.7
20260906065050 21 5 1.6 1.6 0.00 0.00 0.00 99 1014.5
20260906064546 21 15 0.0 0.0 0.00 0.00 0.00 99 1014.8
20260906064040 21 15 0.0 0.0 0.00 0.00 0.00 99 1014.6
20260906063536 21 80 0.0 4.8 0.00 0.00 0.00 99 1014.7
20260906063031 21 0 0.0 0.0 0.00 0.00 0.00 99 1014.7
20260906062521 21 90 0.0 0.0 0.00 0.00 0.00 99 1014.8
20260906062015 21 90 0.0 0.0 0.00 0.00 0.00 99 1014.9
20260906061512 21 15 0.0 0.0 0.00 0.00 0.00 99 1015.1
20260906061011 21 0 0.0 0.0 0.00 0.00 0.00 99 1014.8
20260906060508 21 0 0.0 0.0 0.00 0.00 0.00 99 1014.8
20260906060004 21 0 0.0 0.0 0.00 0.00 0.00 99 1015.1
20260906055459 21 0 0.0 0.0 0.00 0.00 0.00 99 1014.9
20260906054955 21 294 0.0 1.6 0.00 0.00 0.00 99 1015.2
20260906054455 21 0 0.0 0.0 0.00 0.00 0.00 99 1015.1
20260906053950 21 23 0.0 0.0 0.00 0.00 0.00 99 1015.3
20260906053447 21 23 0.0 1.6 0.00 0.00 0.00 99 1015.3
20260906052942 21 81 0.0 0.0 0.00 0.00 0.00 99 1015.2
20260906052438 21 81 0.0 0.0 0.00 0.00 0.00 99 1015.2
20260906051935 21 81 0.0 3.2 0.00 0.00 0.00 99 1015.2
20260906051430 21 337 0.0 0.0 0.00 0.00 0.00 99 1015.5
20260906050925 21 23 1.6 1.6 0.00 0.00 0.00 99 1015.4
20260906050425 21 40 0.0 0.0 0.00 0.00 0.00 99 1015.7
20260906045924 21 90 0.0 1.6 0.00 0.00 0.00 99 1015.7
20260906045423 21 352 0.0 0.0 0.00 0.00 0.00 99 1015.7
20260906044919 21 352 0.0 0.0 0.00 0.00 0.00 99 1015.7
20260906044414 21 352 0.0 0.0 0.00 0.00 0.00 99 1015.9
20260906043909 21 352 0.0 0.0 0.00 0.00 0.00 99 1016.0
20260906043406 21 352 0.0 0.0 0.00 0.00 0.00 99 1015.9
20260906042901 21 35 0.0 0.0 0.00 0.00 0.00 99 1015.8
20260906042359 21 35 0.0 0.0 0.00 0.00 0.00 98 1015.7
20260906041855 21 35 0.0 0.0 0.00 0.00 0.00 99 1015.5
20260906041351 21 35 0.0 1.6 0.00 0.00 0.00 98 1015.7
20260906040845 21 90 0.0 3.2 0.00 0.00 0.00 98 1015.8
20260906040340 21 78 0.0 0.0 0.00 0.00 0.00 98 1016.0
20260906035836 21 78 0.0 0.0 0.00 0.00 0.00 98 1016.0
20260906035331 21 78 0.0 0.0 0.00 0.00 0.00 98 1015.9
20260906034826 21 78 0.0 0.0 0.00 0.00 0.00 98 1016.0
20260906034321 21 78 0.0 0.0 0.00 0.00 0.00 98 1016.0
20260906033817 21 78 0.0 0.0 0.00 0.00 0.00 97 1016.1
20260906033316 21 78 0.0 0.0 0.00 0.00 0.00 97 1016.1
20260906032812 21 78 0.0 0.0 0.00 0.00 0.00 97 1015.9
20260906032308 21 60 0.0 1.6 0.00 0.00 0.00 97 1015.9
20260906031803 21 262 0.0 1.6 0.00 0.00 0.00 97 1016.0
20260906031259 21 270 0.0 0.0 0.00 0.00 0.00 96 1016.1
20260906030758 21 270 0.0 0.0 0.00 0.00 0.00 96 1016.2
20260906030254 21 0 0.0 0.0 0.00 0.00 0.00 96 1016.2
20260906025753 21 0 0.0 0.0 0.00 0.00 0.00 96 1015.8
20260906025247 21 0 0.0 0.0 0.00 0.00 0.00 96 1016.0
20260906024746 22 0 0.0 0.0 0.00 0.00 0.00 96 1015.7
20260906024245 22 270 0.0 0.0 0.00 0.00 0.00 95 1015.8
20260906023741 22 270 0.0 0.0 0.00 0.00 0.00 95 1015.8
20260906023236 22 270 0.0 0.0 0.00 0.00 0.00 95 1015.5
20260906022732 22 0 0.0 0.0 0.00 0.00 0.00 94 1015.7
20260906022227 22 0 0.0 0.0 0.00 0.00 0.00 94 1015.4
20260906021723 22 0 0.0 0.0 0.00 0.00 0.00 94 1015.4
20260906021222 22 0 0.0 0.0 0.00 0.00 0.00 94 1015.5
20260906020717 22 0 0.0 0.0 0.00 0.00 0.00 94 1015.5
20260906020211 22 0 0.0 0.0 0.00 0.00 0.00 94 1015.5
20260906015706 22 0 0.0 0.0 0.00 0.00 0.00 94 1015.4
20260906015204 22 0 0.0 0.0 0.00 0.00 0.00 94 1015.2
20260906014659 22 0 0.0 0.0 0.00 0.00 0.00 94 1015.2
20260906014155 22 352 0.0 0.0 0.00 0.00 0.00 94 1015.4
20260906013651 22 352 0.0 0.0 0.00 0.00 0.00 94 1015.3
20260906013146 22 294 0.0 0.0 0.00 0.00 0.00 94 1015.4
20260906012645 22 294 0.0 0.0 0.00 0.00 0.00 93 1015.2
20260906012140 22 294 0.0 0.0 0.00 0.00 0.00 93 1015.2
20260906011636 22 294 0.0 0.0 0.00 0.00 0.00 93 1015.0
20260906011131 22 294 0.0 0.0 0.00 0.00 0.00 92 1015.1
20260906010626 22 294 0.0 0.0 0.00 0.00 0.00 92 1014.9
20260906010122 22 294 0.0 0.0 0.00 0.00 0.00 91 1014.9
20260906005621 23 294 0.0 0.0 0.00 0.00 0.00 91 1014.8
20260906005121 23 294 0.0 0.0 0.00 0.00 0.00 90 1014.9
20260906004620 23 294 0.0 0.0 0.00 0.00 0.00 90 1014.8
20260906004115 23 294 0.0 0.0 0.00 0.00 0.00 89 1014.9
20260906003610 23 294 0.0 0.0 0.00 0.00 0.00 89 1014.9
20260906003106 23 294 0.0 0.0 0.00 0.00 0.00 89 1014.7
20260906002601 23 294 0.0 0.0 0.00 0.00 0.00 88 1014.9
20260906002055 23 294 0.0 0.0 0.00 0.00 0.00 88 1014.9
20260906001551 24 294 0.0 0.0 0.00 0.00 0.00 88 1014.8
20260906001045 24 294 0.0 0.0 0.00 0.00 0.00 87 1014.8
20260906000541 24 286 1.6 1.6 0.00 0.00 0.00 86 1014.7
20260906000035 25 294 0.0 0.0 0.00 0.00 0.00 85 1014.5
20260905235530 25 294 0.0 0.0 0.00 0.00 0.00 84 1014.6
20260905235025 25 294 0.0 0.0 0.00 0.00 0.00 83 1014.4
20260905234521 25 294 0.0 0.0 0.00 0.00 0.00 82 1014.2
20260905234021 25 294 0.0 0.0 0.00 0.00 0.00 81 1014.3
20260905233515 26 294 0.0 0.0 0.00 0.00 0.00 80 1013.8
20260905233015 26 294 0.0 0.0 0.00 0.00 0.00 79 1014.0
20260905232511 26 294 0.0 0.0 0.00 0.00 0.00 78 1014.1
20260905232006 27 294 0.0 0.0 0.00 0.00 0.00 77 1013.9
20260905231501 27 294 0.0 0.0 0.00 0.00 0.00 75 1013.9
20260905230958 27 294 0.0 1.6 0.00 0.00 0.00 73 1013.9
20260905230456 28 270 0.0 0.0 0.00 0.00 0.00 71 1014.0
20260905225954 28 270 0.0 0.0 0.00 0.00 0.00 69 1014.2
20260905225450 28 276 0.0 3.2 0.00 0.00 0.00 67 1014.4
20260905224945 30 282 3.2 3.2 0.00 0.00 0.00 66 1014.4
20260905224440 30 270 0.0 0.0 0.00 0.00 0.00 69 1014.2
20260905223939 29 277 0.0 4.8 0.00 0.00 0.00 65 1014.1
20260905223437 29 345 0.0 3.2 0.00 0.00 0.00 66 1013.9
20260905222932 29 279 1.6 3.2 0.00 0.00 0.00 67 1014.0
20260905222432 30 334 1.6 3.2 0.00 0.00 0.00 67 1013.9
20260905221927 30 286 0.0 3.2 0.00 0.00 0.00 65 1014.1
20260905221424 30 270 0.0 0.0 0.00 0.00 0.00 67 1014.1
20260905220920 28 270 0.0 0.0 0.00 0.00 0.00 68 1014.3
20260905220416 28 328 0.0 0.0 0.00 0.00 0.00 69 1014.1
20260905215915 27 289 3.2 3.2 0.00 0.00 0.00 67 1014.1
20260905215410 28 12 0.0 4.8 0.00 0.00 0.00 67 1014.1
20260905214907 28 300 1.6 3.2 0.00 0.00 0.00 67 1014.2
20260905214402 28 319 3.2 3.2 0.00 0.00 0.00 68 1014.5
20260905213857 27 262 1.6 1.6 0.00 0.00 0.00 73 1014.5
20260905213353 27 325 1.6 4.8 0.00 0.00 0.00 72 1014.7
20260905212848 27 266 4.8 4.8 0.00 0.00 0.00 75 1014.9
20260905212342 27 0 0.0 3.2 0.00 0.00 0.00 76 1014.9
20260905211842 27 60 0.0 0.0 0.00 0.00 0.00 77 1015.0
20260905211338 27 60 0.0 0.0 0.00 0.00 0.00 77 1014.9
20260905210834 26 352 0.0 3.2 0.00 0.00 0.00 76 1014.9
20260905210333 26 12 6.4 8.0 0.00 0.00 0.00 76 1015.1
20260905205832 26 251 3.2 4.8 0.00 0.00 0.00 77 1014.8
20260905205327 26 192 0.0 4.8 0.00 0.00 0.00 78 1014.8
20260905204827 26 61 3.2 4.8 0.00 0.00 0.00 77 1015.0
20260905204323 26 32 3.2 4.8 0.00 0.00 0.00 80 1015.2
20260905203821 26 352 0.0 0.0 0.00 0.00 0.00 82 1014.9
20260905203318 26 16 3.2 3.2 0.00 0.00 0.00 81 1014.6
20260905202813 26 345 0.0 1.6 0.00 0.00 0.00 81 1015.0
20260905202308 26 340 0.0 0.0 0.00 0.00 0.00 81 1014.8
20260905201803 26 320 3.2 4.8 0.00 0.00 0.00 80 1014.8
20260905201259 26 35 0.0 0.0 0.00 0.00 0.00 80 1014.7
20260905200753 26 23 0.0 0.0 0.00 0.00 0.00 79 1015.1
20260905200249 26 23 0.0 3.2 0.00 0.00 0.00 79 1014.9
20260905195746 26 345 0.0 6.4 0.00 0.00 0.00 78 1015.3
20260905195242 26 84 0.0 3.2 0.00 0.00 0.00 77 1015.5
20260905194738 26 0 0.0 0.0 0.00 0.00 0.00 77 1015.5
20260905194236 26 311 0.0 6.4 0.00 0.00 0.00 76 1015.2
20260905193731 26 315 0.0 3.2 0.00 0.00 0.00 76 1014.8
20260905193226 26 320 0.0 0.0 0.00 0.00 0.00 76 1014.9
20260905192721 26 320 0.0 0.0 0.00 0.00 0.00 76 1014.9
20260905192218 26 320 0.0 3.2 0.00 0.00 0.00 74 1014.9
20260905191717 27 279 0.0 1.6 0.00 0.00 0.00 74 1014.9
20260905191215 27 0 1.6 1.6 0.00 0.00 0.00 73 1014.5
20260905190714 27 340 1.6 3.2 0.00 0.00 0.00 73 1014.2
20260905190213 27 300 0.0 3.2 0.00 0.00 0.00 73 1014.0
20260905185712 28 325 0.0 4.8 0.00 0.00 0.00 71 1014.4
20260905185207 28 200 0.0 4.8 0.00 0.00 0.00 71 1014.3
20260905184701 28 343 8.0 8.0 0.00 0.00 0.00 68 1014.8
20260905184200 29 311 0.0 9.7 0.00 0.00 0.00 66 1015.0
20260905183654 31 355 3.2 14.5 0.00 0.00 0.00 58 1015.7
20260905183149 35 301 4.8 8.0 0.00 0.00 0.00 53 1015.0
20260905182649 35 290 6.4 6.4 0.00 0.00 0.00 56 1014.5
20260905182149 35 336 3.2 4.8 0.00 0.00 0.00 54 1014.4
20260905181644 35 337 0.0 3.2 0.00 0.00 0.00 58 1014.4
20260905181143 35 172 0.0 4.8 0.00 0.00 0.00 54 1014.7
20260905180638 35 26 3.2 3.2 0.00 0.00 0.00 51 1014.8
20260905180133 35 311 3.2 8.0 0.00 0.00 0.00 55 1014.7
20260905175632 35 258 4.8 8.0 0.00 0.00 0.00 57 1015.0
20260905175127 34 14 1.6 3.2 0.00 0.00 0.00 59 1015.2
20260905174623 34 342 3.2 6.4 0.00 0.00 0.00 60 1015.3
20260905174119 35 294 0.0 4.8 0.00 0.00 0.00 56 1015.5
20260905173615 34 15 0.0 3.2 0.00 0.00 0.00 59 1015.2
20260905173110 34 195 3.2 8.0 0.00 0.00 0.00 58 1015.7
20260905172609 35 281 8.0 11.3 0.00 0.00 0.00 60 1015.5
20260905172104 35 63 0.0 3.2 0.00 0.00 0.00 57 1015.8
20260905171600 35 339 6.4 8.0 0.00 0.00 0.00 57 1016.0
20260905171056 35 20 1.6 8.0 0.00 0.00 0.00 58 1015.8
20260905170553 35 282 0.0 8.0 0.00 0.00 0.00 62 1015.9
20260905170048 35 0 3.2 3.2 0.00 0.00 0.00 58 1016.2
20260905165543 35 0 3.2 3.2 0.00 0.00 0.00 57 1016.3
20260905165037 35 324 3.2 8.0 0.00 0.00 0.00 58 1016.1
20260905164532 35 327 0.0 4.8 0.00 0.00 0.00 57 1016.2
20260905164027 35 0 1.6 3.2 0.00 0.00 0.00 61 1016.4
20260905163523 35 294 0.0 1.6 0.00 0.00 0.00 63 1016.4
20260905163019 35 352 0.0 0.0 0.00 0.00 0.00 63 1016.4
20260905162514 35 352 0.0 0.0 0.00 0.00 0.00 64 1016.8
20260905162009 33 325 1.6 4.8 0.00 0.00 0.00 66 1016.6
20260905161509 33 285 1.6 3.2 0.00 0.00 0.00 62 1016.6
20260905161006 34 41 0.0 3.2 0.00 0.00 0.00 62 1016.8
20260905160500 34 0 0.0 3.2 0.00 0.00 0.00 72 1016.8
20260905155959 33 111 0.0 4.8 0.00 0.00 0.00 68 1016.7
20260905155455 33 60 0.0 3.2 0.00 0.00 0.00 68 1016.6
20260905154953 33 8 0.0 3.2 0.00 0.00 0.00 66 1016.9
20260905154448 33 342 3.2 6.4 0.00 0.00 0.00 68 1016.9
20260905153944 33 0 0.0 0.0 0.00 0.00 0.00 73 1016.9
20260905153440 33 192 1.6 3.2 0.00 0.00 0.00 71 1016.9
20260905152939 32 8 0.0 3.2 0.00 0.00 0.00 68 1016.9
20260905152439 32 7 4.8 4.8 0.00 0.00 0.00 71 1016.7
20260905151934 31 0 1.6 3.2 0.00 0.00 0.00 74 1017.0
20260905151430 32 23 1.6 1.6 0.00 0.00 0.00 73 1016.7
20260905150925 31 180 0.0 0.0 0.00 0.00 0.00 76 1016.9
20260905150425 30 264 0.0 3.2 0.00 0.00 0.00 77 1017.0
20260905145921 30 345 0.0 4.8 0.00 0.00 0.00 77 1017.1
20260905145416 30 32 0.0 3.2 0.00 0.00 0.00 80 1017.1
20260905144915 30 327 0.0 3.2 0.00 0.00 0.00 83 1017.0
20260905144411 29 281 4.8 4.8 0.00 0.00 0.00 85 1016.9
20260905143910 28 288 0.0 4.8 0.00 0.00 0.00 84 1016.8
20260905143404 28 270 0.0 3.2 0.00 0.00 0.00 85 1016.9
20260905142904 28 0 0.0 3.2 0.00 0.00 0.00 86 1017.1
20260905142403 28 337 0.0 3.2 0.00 0.00 0.00 87 1017.1
20260905141858 27 326 0.0 3.2 0.00 0.00 0.00 88 1017.2
20260905141353 27 303 3.2 3.2 0.00 0.00 0.00 88 1017.1
20260905140850 27 274 4.8 6.4 0.00 0.00 0.00 88 1017.2
20260905140350 27 306 0.0 4.8 0.00 0.00 0.00 89 1017.3
20260905135848 26 301 3.2 3.2 0.00 0.00 0.00 91 1017.4
20260905135344 26 188 0.0 1.6 0.00 0.00 0.00 92 1017.5
20260905134839 26 270 0.0 1.6 0.00 0.00 0.00 92 1017.3
20260905134338 26 345 1.6 4.8 0.00 0.00 0.00 92 1017.2
20260905133833 26 319 3.2 3.2 0.00 0.00 0.00 95 1017.1
20260905133328 25 270 0.0 1.6 0.00 0.00 0.00 97 1017.4
20260905132827 25 278 0.0 1.6 0.00 0.00 0.00 97 1017.3
20260905132323 25 261 0.0 0.0 0.00 0.00 0.00 98 1017.2
20260905131823 25 261 0.0 3.2 0.00 0.00 0.00 98 1017.4
20260905131318 25 286 0.0 3.2 0.00 0.00 0.00 99 1017.5
20260905130814 24 90 0.0 3.2 0.00 0.00 0.00 99 1017.6
20260905130312 24 11 0.0 3.2 0.00 0.00 0.00 99 1017.1
20260905125808 23 6 0.0 0.0 0.00 0.00 0.00 99 1017.4
20260905125305 23 8 0.0 0.0 0.00 0.00 0.00 99 1017.3
20260905124759 23 0 0.0 3.2 0.00 0.00 0.00 99 1017.5
20260905124254 23 294 0.0 3.2 0.00 0.00 0.00 99 1017.3
20260905123749 23 294 0.0 3.2 0.00 0.00 0.00 99 1017.3
20260905123247 23 304 0.0 3.2 0.00 0.00 0.00 99 1017.4
20260905122746 23 334 3.2 3.2 0.00 0.00 0.00 99 1017.5
20260905122240 23 0 0.0 0.0 0.00 0.00 0.00 99 1017.4
20260905121735 23 345 0.0 1.6 0.00 0.00 0.00 99 1017.5
20260905121232 23 300 0.0 0.0 0.00 0.00 0.00 99 1017.8
20260905120730 23 300 0.0 0.0 0.00 0.00 0.00 99 1017.4
20260905120225 23 286 0.0 1.6 0.00 0.00 0.00 99 1017.5
20260905115720 22 346 0.0 0.0 0.00 0.00 0.00 99 1017.5
20260905115220 22 270 0.0 0.0 0.00 0.00 0.00 99 1017.4
20260905114715 22 90 0.0 0.0 0.00 0.00 0.00 99 1017.3
20260905114213 22 90 0.0 0.0 0.00 0.00 0.00 99 1017.3
20260905113713 22 90 0.0 0.0 0.00 0.00 0.00 99 1017.1
20260905113209 22 90 0.0 0.0 0.00 0.00 0.00 99 1016.9
20260905112708 22 90 0.0 0.0 0.00 0.00 0.00 99 1017.1
20260905112204 22 270 0.0 0.0 0.00 0.00 0.00 99 1016.8
20260905111703 22 270 0.0 0.0 0.00 0.00 0.00 99 1016.9
20260905111203 22 270 0.0 0.0 0.00 0.00 0.00 99 1016.7
20260905110702 22 270 0.0 0.0 0.00 0.00 0.00 99 1016.6
20260905110157 22 270 0.0 0.0 0.00 0.00 0.00 99 1016.7
20260905105653 22 270 0.0 0.0 0.00 0.00 0.00 99 1016.8
20260905105151 22 270 0.0 0.0 0.00 0.00 0.00 99 1016.4
20260905104646 22 270 0.0 1.6 0.00 0.00 0.00 99 1016.5
20260905104142 22 270 0.0 0.0 0.00 0.00 0.00 99 1016.3
20260905103637 22 270 0.0 0.0 0.00 0.00 0.00 99 1016.4
20260905103133 22 270 0.0 0.0 0.00 0.00 0.00 99 1016.2
20260905102629 22 270 0.0 0.0 0.00 0.00 0.00 99 1016.1
20260905102125 22 270 0.0 0.0 0.00 0.00 0.00 99 1016.1
20260905101623 22 270 0.0 0.0 0.00 0.00 0.00 99 1016.3
20260905101122 22 0 0.0 0.0 0.00 0.00 0.00 99 1016.2
20260905100618 22 0 1.6 1.6 0.00 0.00 0.00 99 1016.3
20260905100113 22 306 0.0 0.0 0.00 0.00 0.00 99 1016.2
20260905095607 22 306 0.0 0.0 0.00 0.00 0.00 99 1016.1
20260905095102 22 306 0.0 0.0 0.00 0.00 0.00 99 1016.3
20260905094558 22 352 0.0 0.0 0.00 0.00 0.00 99 1016.3
20260905094057 22 353 0.0 1.6 0.00 0.00 0.00 99 1016.1
20260905093556 22 0 0.0 0.0 0.00 0.00 0.00 99 1016.4
20260905093053 22 0 0.0 0.0 0.00 0.00 0.00 99 1016.0
20260905092553 22 0 0.0 0.0 0.00 0.00 0.00 99 1016.2
20260905092049 22 0 0.0 0.0 0.00 0.00 0.00 99 1016.4
20260905091548 22 0 0.0 0.0 0.00 0.00 0.00 99 1016.0
20260905091043 22 0 0.0 0.0 0.00 0.00 0.00 99 1016.4
20260905090542 22 0 0.0 0.0 0.00 0.00 0.00 99 1016.2
20260905090038 22 0 0.0 0.0 0.00 0.00 0.00 99 1016.2
20260905085536 22 48 0.0 0.0 0.00 0.00 0.00 99 1016.3
20260905085032 22 48 0.0 0.0 0.00 0.00 0.00 99 1016.3
20260905084526 23 0 0.0 0.0 0.00 0.00 0.00 99 1016.2
20260905084021 23 0 0.0 0.0 0.00 0.00 0.00 99 1016.3
20260905083516 23 23 0.0 0.0 0.00 0.00 0.00 99 1016.2
20260905083013 23 0 0.0 1.6 0.00 0.00 0.00 99 1016.3
20260905082508 23 346 0.0 0.0 0.00 0.00 0.00 99 1016.3
20260905082003 23 346 0.0 0.0 0.00 0.00 0.00 99 1016.6
20260905081457 22 0 0.0 0.0 0.00 0.00 0.00 99 1016.6
20260905080957 23 0 0.0 0.0 0.00 0.00 0.00 99 1016.5
20260905080452 23 0 0.0 0.0 0.00 0.00 0.00 99 1016.6
20260905075950 23 0 0.0 0.0 0.00 0.00 0.00 99 1016.8
20260905075445 23 0 0.0 0.0 0.00 0.00 0.00 99 1016.7
20260905074944 23 0 0.0 0.0 0.00 0.00 0.00 99 1016.6
20260905074440 23 0 0.0 0.0 0.00 0.00 0.00 99 1016.7
20260905073935 23 345 0.0 0.0 0.00 0.00 0.00 99 1016.9
20260905073430 23 352 0.0 0.0 0.00 0.00 0.00 99 1017.0
20260905072926 23 352 0.0 0.0 0.00 0.00 0.00 99 1016.8